Regional Weather Roundup
Issued by NWS Sterling, VA

Home | Current Version | Previous Version | Text Only | Print | Product List | Glossary On
Versions: 1 2 3 4 5 6 7 8 9 10 11 12 13 14 15 16 17 18 19 20 21 22 23 24 25 26 27 28 29 30 31 32 33 34 35 36 37 38 39 40 41 42 43 44 45 46 47 48 49 50
000
ASUS41 KLWX 302010
RWRLWX

REGIONAL WEATHER ROUNDUP
NATIONAL WEATHER SERVICE BALTIMORE MD/WASHINGTON DC
400 PM EDT SUN AUG 30 2015

Note: "FAIR" indicates few or no clouds below 12,000 feet
with no significant weather and/or obstructions to visibility.
 TC=TEMPERATURE CELSIUS

 * =Non NWS site. Station does not report precipitation (e.g. rain,
    snow, etc.), thunder, or fog.

DCZ001-MDZ009-015-VAZ040>042-051-053>054-302100-
WASHINGTON METRO

CITY           SKY/WX    TMP DP  RH WIND       PRES   REMARKS
WASHINGTON NAT PTSUNNY   86  65  49 S7        30.07F
DULLES         PTSUNNY   86  64  47 SW7       30.07F
ANDREWS AFB    MOSUNNY   87  63  44 S8        30.07F
FT BELVOIR     PTSUNNY   85  67  54 S5        30.08F
QUANTICO       PTSUNNY   83  68  60 SW6       30.09F
COLLEGE PARK*  MOSUNNY   88  63  42 CALM      30.06F
LEESBURG*      MOSUNNY   88  70  55 W7G16     30.08F HX  92
GAITHERSBURG*  MOSUNNY   84  64  51 W5        30.12F

$$

MDZ006>007-011-014-302100-
BALTIMORE METRO

CITY           SKY/WX    TMP DP  RH WIND       PRES   REMARKS
BWI AIRPORT    PTSUNNY   85  67  54 S7        30.06F
MD SCIENCE CTR   N/A     87  67  51 MISG      30.06F HX  90
MARTIN STATE   PTSUNNY   82  73  74 SE9       30.08F
ANNAPOLIS      MOSUNNY   81  69  67 SE12      30.06F
FORT MEADE*    MOSUNNY   82  68  61 S3        30.09F

$$

MDZ012-015-019>023-302100-
MARYLAND EASTERN SHORE

CITY           SKY/WX    TMP DP  RH WIND       PRES   REMARKS
OCEAN CITY     MOSUNNY   84  65  52 SW9       30.10F
SALISBURY      MOSUNNY   86  62  44 SW7       30.08F
BAY BRIDGE AP*   N/A     82  63  51 SW8       30.07F
CAMBRIDGE*     MOSUNNY   86  63  45 SW6       30.08F
EASTON*        PTSUNNY   86  64  48 SW9       30.11F

$$

MDZ017>025-302100-
SOUTHERN MARYLAND

CITY           SKY/WX    TMP DP  RH WIND       PRES   REMARKS
PATUXENT RIVER PTSUNNY   86  67  52 S9        30.08F
ST INIGOES     MOSUNNY   85  68  56 SE7       30.08F
LEONARDTOWN*   MOSUNNY   86  63  45 S8        30.10F

$$

MDZ003>005-302100-
NORTH CENTRAL MARYLAND

CITY           SKY/WX    TMP DP  RH WIND       PRES   REMARKS
FREDERICK*     SUNNY     91  64  40 S9        30.08F HX  93
HAGERSTOWN APT MOSUNNY   89  62  40 W9        30.05F
WESTMINSTER*   MOSUNNY   88  61  40 W7        30.08F

$$

MDZ501>502-302100-
WESTERN MARYLAND

CITY           SKY/WX    TMP DP  RH WIND       PRES   REMARKS
OAKLAND*       PTSUNNY   73  61  64 W7        30.20F
CUMBERLAND*    PTSUNNY   90  61  37 S3        30.10F

$$

VAZ025>031-302100-
SHENANDOAH VALLEY

CITY           SKY/WX    TMP DP  RH WIND       PRES   REMARKS
WINCHESTER*    PTSUNNY   88  63  42 S5        30.08F
FRONT ROYAL*   FAIR      88  64  45 S6        30.07F
LURAY*         FAIR      88  55  33 SW7       30.09F
NEW MARKET*    FAIR      85  63  48 SE6       30.08S
STAUNTON*      CLOUDY    88  55  33 SW8       30.13F
WAYNESBORO*    FAIR      84  59  43 SE5       30.14F

$$

WVZ021-048>050-054>055-302100-
EASTERN WEST VIRGINIA PANHANDLE

CITY           SKY/WX    TMP DP  RH WIND       PRES   REMARKS
MARTINSBURG    MOSUNNY   89  60  37 SW9       30.06F
PETERSBURG*    PTSUNNY   87  60  40 CALM      30.09S

$$

VAZ036>039-050-302100-
CENTRAL FOOTHILLS

CITY           SKY/WX    TMP DP  RH WIND       PRES   REMARKS
CHARLOTTESVILL PTSUNNY   86  63  45 S6        30.10F
CULPEPER*      PTSUNNY   86  65  49 CALM      30.08F
ORANGE*        PTSUNNY   90  59  35 E5        30.10F
GORDONSVILLE*  FAIR      87  64  46 SE3       30.08F
WARRENTON*     FAIR      88  67  48 CALM      30.08F HX  91

$$

VAZ055>057-302100-
NORTH AND CENTRAL PIEDMONT

CITY           SKY/WX    TMP DP  RH WIND       PRES   REMARKS
FREDERICKSBRG* PTSUNNY   89  64  43 S3        30.06F HX  90
STAFFORD*      PTSUNNY   87  63  45 SE3       30.12F

$$

NCZ024-NYZ072-PAZ021-071-VAZ022-071-302100-
OTHER REGIONAL OBSERVATIONS

CITY           SKY/WX    TMP DP  RH WIND       PRES   REMARKS
NEW YORK CITY  PTSUNNY   86  65  49 VRB6      30.05F
PHILADELPHIA   PTSUNNY   90  64  42 SW14      30.05F HX  91
PITTSBURGH     PTSUNNY   82  64  54 W5        30.08F
ROANOKE        CLOUDY    82  60  47 W3        30.15F
RICHMOND       PTSUNNY   88  60  38 S10       30.09F
RALEIGH        CLOUDY    84  59  42 VRB5      30.13S

$$

ANZ530>537-302100-
MARINE OBSERVATIONS

STATION/POSITION TIME  TEMP    WIND        PRES
                       AIR SEA DIR/SP/G
                 (UTC) (F)     (DEG/KT/KT) (MB)
THOMAS PT LIGHT  2000   79 79  170/ 12/ 13   N/A

$$




USA.gov is the U.S. government's official web portal to all federal, state and local government web resources and services.